CZ-6A DEB

Satellite information

Favourite Embed

Satellite Type and Status

DEBRISIN ORBIT

Key statistics

Satellite CZ-6A DEB at a glance.

Uptime

334

Days in orbit

Revolutions

≈ 14.3

Per day

Orbit

LEO

Low Earth Orbit

Inclination

89.0

Latest

Satellite identification and parameters

Extended collection of information and parameters for CZ-6A DEB.

Object identification

Identified? True

Debris? True

Object name: CZ-6A DEB

International designator: 2024-140BK

Object number (NORAD): 60658

Object ID (CCSDS): 60658

Country: PEOPLES REPUBLIC OF CHINA (PRC)

Current information (Y/N): Y

RCS size: SMALL

Orbital parameters

Period: 100.387 minutes

Inclination: 88.9922 deg

SMA: 7155.025 km

Apoapsis: 828.016 km

Periapsis: 725.764 km

RAAN: 312.5039 deg

Eccentricy: 0.0071455

Argument of periapsis: 101.2781 deg

Mean anomaly: 259.6458 deg

Mean motion: 14.34451972 rev/day

Mean motion (dot): 0.00000882 rev/day2

B* drag term: 0.00029891 1/REarth

Two-line elements (TLE)

Creation date: July 4, 2025, 10:36 p.m.

Reference frame: TEME

Reference center: EARTH

Epoch: July 4, 2025, 6:46 p.m. UTC

TLE line 0: 0 CZ-6A DEB

TLE line 1: 1 60658U 24140BK 25185.78227294 .00000882 00000-0 29891-3 0 9998

TLE line 2: 2 60658 88.9922 312.5039 0071455 101.2781 259.6458 14.34451972 47280

Live tracking on map

Real-time ground track for satellite CZ-6A DEB.

In-orbit conjunctions

A list of the most updated potential collisions computed for object CZ-6A DEB.

Target Orbit TCA Probability of collision Miss distance Type
SL-8 R/B LEO 2025-06-07 14:19:14 0.000521955 281.0 (m) ROCKET BODY
NOAA 16 DEB SSO 2025-03-02 19:48:50 0.0001927179 335.0 (m) DEBRIS
NOAA 16 DEB SSO 2025-02-17 02:32:23 0.001335405 79.0 (m) DEBRIS
COSMOS 2251 DEB LEO 2025-01-10 15:05:10 0.0001795926 727.0 (m) DEBRIS
SL-12 R/B(AUX MOTOR) LEO 2024-09-30 22:30:45 0.0002118899 416.0 (m) ROCKET BODY

Associated space launch

18 Low Earth Orbit communication satellites with Ku, Q and V band payloads for the G60 constellation operated by Shanghai Spacecom Satellite Technology (SSST) with funding backed by the Shanghai local government. Initial constellation will consist of 1296 satellites by 2027 with long term plans to expand it to 12000 satellites.

CZ-6A DEB was lifted into orbit during the mission ‘Long March 6A | G60 Polar Group 01’, on board a Long March 6A space rocket.

The launch took place on Aug. 6, 2024, 6:42 a.m. from Launch Complex 9A.

For more information about the launch, click the button.

Launch to space Long March 6A | G60 Polar Group 01
Long March 6A | G60 Polar Group 01

Agency: N/A

Status: Launch Successful

Launch date: Aug. 6, 2024, 6:42 a.m. UTC

Rocket: Long March 6A

Launch pad: Launch Complex 9A

Location: Taiyuan Satellite Launch Center, People's Republic of China

...

Latest news about this satellite

News about space launch
Brightness of first Chinese broadband constellation satellites alarms astronomers

The first satellites of a Chinese broadband constellation are significantly brighter than those of Western systems, posing a new challenge for astronomers.

News about space launch
Chinese rocket stage breaks up into cloud of more than 700 pieces of space debris

HELSINKI — A Chinese Long March 6A rocket’s upper stage has fragmented into a cloud of over 700 pieces of space debris, adding to concerns about long-term orbital safety. China […]

News about space launch
China's Thousand Sails Megaconstellation Kicks Off with Dangerous Debris Field

China's Thousand Sails Megaconstellation Kicks Off with Dangerous Debris Field


Newsletter sign-up

Weekly statistics, charts and insights to help you stay on top of the space industry.